Retour au catalogue

ONEWEB-0567

ActifCommunicationsPO
NORAD 55147·PAYLOAD·🇬🇧 United Kingdom

Lancé Jan 10, 2023 depuis Cape Canaveral Space Force Station

Loading…

Prochains Passages (prochaines 24 heures)

TLE

FraisSource: CelesTrak SupGP

Époque: Sep 14, 2026, 19:56 UTC

1 55147C 23004H   26257.83108056 -.00002769  00000+0 -70323-2 0  2573
2 55147  87.9161 317.6563 0001622  96.6515 302.1337 13.18689952    12

Suivez ONEWEB-0567 en temps réel avec AllMySat

Download on the App Store